Terug naar catalogus

COSMOS 2251 DEB

ActiefLEO
NORAD 34026·DEBRIS·🇷🇺 Russia

Gelanceerd Jun 16, 1993 vanaf Plesetsk Cosmodrome

Loading…

Volgende Passages (komende 24 uur)

TLE

VersSource: Space-Track

Epoch: Sep 13, 2026, 09:55 UTC

1 34026U 93036HM  26256.41365301  .00000677  00000-0  56714-3 0  9996
2 34026  73.7647 240.3778 0344273  67.5868  52.1153 13.65788885872817

Volg COSMOS 2251 DEB in realtime met AllMySat

Download on the App Store